Weather History for KAYS - January, 2013

Change the Weather History Date:

Tuesday, January 8, 2013

  Actual Average (KAMG) Record (KAMG)
Temperature  
Mean Temperature 58 °F 50 °F  
Max Temperature 69 °F 61 °F 79 °F (1989)
Min Temperature 48 °F 39 °F 17 °F (1970)
Degree Days  
Heating Degree Days 6 15  
Month to date heating degree days 120  
Since 1 July heating degree days 760  
Cooling Degree Days 0 0  
Month to date cooling degree days 0  
Year to date cooling degree days 0  
Growing Degree Days 8 (Base 50)    
Moisture  
Dew Point 49 °F    
Average Humidity 76    
Maximum Humidity 88    
Minimum Humidity 64    
Precipitation  
Precipitation 0.00 in 0.12 in 1.70 in (1993)
Month to date precipitation 1.01  
Year to date precipitation 1.01  
Snow  
Snow 0.00 in 0.00 in 0.00 in ()
Month to date snowfall 0.0  
Since 1 July snowfall 0.1  
Snow Depth -    
Sea Level Pressure  
Sea Level Pressure 30.28 in    
Wind  
Wind Speed 6 mph (NE)    
Max Wind Speed 12 mph    
Max Gust Speed 18 mph    
Visibility 10 miles    
Events      
T = Trace of Precipitation, MM = Missing Value Source: NWS Daily Summary

Daily Weather History Graph

Daily Weather History Graph

Search for Another Location

Airport or City:

Trip Planner

Search our weather history database for the weather conditions in past years. The results will help you decide how hot, cold, wet, or windy it might be!

Date:

Astronomy

Jan. 08, 2013 Rise Set
Actual Time 7:29 AM EST 5:43 PM EST
Civil Twilight 7:02 AM EST 6:10 PM EST
Nautical Twilight 6:32 AM EST 6:40 PM EST
Astronomical Twilight 6:03 AM EST 7:09 PM EST
Moon 4:02 AM EST (1/8) 2:44 PM EST (1/8)
Length of Visible Light 11h 07m
Length of Day
10h 14m
Waning Crescent, 14% of the Moon is Illuminated
Jan 8
Waning Crescent
Jan 11
New
Jan 18
First Quarter
Jan 26
Full
Feb 3
Last Quarter

Hourly Weather History & Observations

Time (EST) Temp. Dew Point Humidity Pressure Visibility Wind Dir Wind Speed Gust Speed Precip Events Conditions
12:15 AM 48.2 °F 41.0 °F 76% 30.28 in 10.0 mi NE 6.9 mph - N/A   Clear
12:35 AM 48.2 °F 42.8 °F 82% 30.27 in 10.0 mi ENE 8.1 mph - N/A   Unknown
12:55 AM 48.2 °F 42.8 °F 82% 30.27 in 10.0 mi ENE 9.2 mph - N/A   Unknown
1:15 AM 48.2 °F 42.8 °F 82% 30.26 in 10.0 mi NE 8.1 mph - N/A   Mostly Cloudy
1:35 AM 48.2 °F 41.0 °F 76% 30.27 in 10.0 mi ENE 8.1 mph - N/A   Mostly Cloudy
1:55 AM 48.2 °F 42.8 °F 82% 30.27 in 10.0 mi NE 4.6 mph - N/A   Overcast
2:15 AM 48.2 °F 41.0 °F 76% 30.26 in 10.0 mi NE 5.8 mph - N/A   Overcast
2:35 AM 48.2 °F 41.0 °F 76% 30.26 in 10.0 mi NE 4.6 mph - N/A   Overcast
2:55 AM 48.2 °F 41.0 °F 76% 30.26 in 10.0 mi NE 4.6 mph - N/A   Overcast
3:15 AM 48.2 °F 41.0 °F 76% 30.26 in 10.0 mi ENE 5.8 mph - N/A   Overcast
3:35 AM 48.2 °F 41.0 °F 76% 30.26 in 10.0 mi NE 4.6 mph - N/A   Overcast
3:55 AM 48.2 °F 42.8 °F 82% 30.25 in 10.0 mi NE 4.6 mph - N/A   Overcast
4:15 AM 48.2 °F 42.8 °F 82% 30.25 in 10.0 mi ENE 4.6 mph - N/A   Overcast
4:35 AM 48.2 °F 42.8 °F 82% 30.24 in 10.0 mi ENE 8.1 mph - N/A   Overcast
4:55 AM 48.2 °F 42.8 °F 82% 30.24 in 10.0 mi ENE 4.6 mph - N/A   Overcast
5:15 AM 48.2 °F 42.8 °F 82% 30.24 in 10.0 mi NE 6.9 mph - N/A   Overcast
5:35 AM 48.2 °F 42.8 °F 82% 30.24 in 10.0 mi NE 4.6 mph - N/A   Overcast
5:55 AM 48.2 °F 42.8 °F 82% 30.25 in 10.0 mi NE 4.6 mph - N/A   Overcast
6:15 AM 48.2 °F 42.8 °F 82% 30.26 in 10.0 mi NE 4.6 mph - N/A   Unknown
6:35 AM 48.2 °F 42.8 °F 82% 30.26 in 10.0 mi ENE 4.6 mph - N/A   Unknown
6:55 AM 48.2 °F 42.8 °F 82% 30.27 in 10.0 mi NNE 4.6 mph - N/A   Unknown
7:15 AM 48.2 °F 42.8 °F 82% 30.28 in 10.0 mi NE 5.8 mph - N/A   Unknown
7:35 AM 48.2 °F 42.8 °F 82% 30.28 in 10.0 mi ENE 4.6 mph - N/A   Unknown
7:55 AM 48.2 °F 42.8 °F 82% 30.30 in 10.0 mi NE 5.8 mph - N/A   Unknown
8:15 AM 48.2 °F 42.8 °F 82% 30.30 in 10.0 mi NE 5.8 mph - N/A   Overcast
8:35 AM 50.0 °F 44.6 °F 82% 30.31 in 10.0 mi NE 6.9 mph - N/A   Mostly Cloudy
8:55 AM 51.8 °F 44.6 °F 76% 30.32 in 10.0 mi NE 3.5 mph - N/A   Mostly Cloudy
9:15 AM 51.8 °F 44.6 °F 76% 30.33 in 10.0 mi ENE 5.8 mph - N/A   Overcast
9:35 AM 53.6 °F 46.4 °F 77% 30.33 in 10.0 mi ENE 8.1 mph - N/A   Mostly Cloudy
9:55 AM 53.6 °F 46.4 °F 77% 30.33 in 10.0 mi East 5.8 mph - N/A   Overcast
10:15 AM 55.4 °F 46.4 °F 72% 30.34 in 10.0 mi NNE 4.6 mph - N/A   Overcast
10:35 AM 55.4 °F 48.2 °F 77% 30.34 in 10.0 mi NNE 4.6 mph - N/A   Overcast
10:55 AM 57.2 °F 48.2 °F 72% 30.33 in 10.0 mi ENE 4.6 mph - N/A   Overcast
11:15 AM 57.2 °F 48.2 °F 72% 30.33 in 10.0 mi ENE 3.5 mph - N/A   Overcast
11:35 AM 60.8 °F 50.0 °F 68% 30.32 in 10.0 mi East 5.8 mph - N/A   Overcast
11:55 AM 60.8 °F 50.0 °F 68% 30.31 in 10.0 mi NNE 3.5 mph - N/A   Overcast
12:15 PM 60.8 °F 51.8 °F 72% 30.30 in 10.0 mi NNE 6.9 mph - N/A   Overcast
12:35 PM 60.8 °F 51.8 °F 72% 30.30 in 10.0 mi North 4.6 mph - N/A   Overcast
12:55 PM 62.6 °F 51.8 °F 68% 30.29 in 10.0 mi North 4.6 mph - N/A   Overcast
1:15 PM 64.4 °F 51.8 °F 64% 30.28 in 10.0 mi NNE 8.1 mph - N/A   Overcast
1:35 PM 64.4 °F 53.6 °F 68% 30.27 in 10.0 mi NE 5.8 mph - N/A   Overcast
1:55 PM 66.2 °F 53.6 °F 64% 30.26 in 10.0 mi East 6.9 mph - N/A   Mostly Cloudy
2:15 PM 68.0 °F 55.4 °F 64% 30.25 in 10.0 mi ENE 8.1 mph - N/A   Mostly Cloudy
2:35 PM 68.0 °F 55.4 °F 64% 30.24 in 10.0 mi ENE 6.9 mph - N/A   Scattered Clouds
2:55 PM 68.0 °F 57.2 °F 68% 30.24 in 10.0 mi East 9.2 mph - N/A   Clear
3:15 PM 68.0 °F 57.2 °F 68% 30.24 in 10.0 mi East 8.1 mph - N/A   Clear
3:35 PM 69.8 °F 57.2 °F 64% 30.24 in 10.0 mi East 9.2 mph - N/A   Clear
3:55 PM 69.8 °F 57.2 °F 64% 30.24 in 10.0 mi ENE 10.4 mph - N/A   Clear
4:15 PM 69.8 °F 57.2 °F 64% 30.24 in 10.0 mi East 9.2 mph - N/A   Clear
4:35 PM 68.0 °F 57.2 °F 68% 30.25 in 10.0 mi ENE 6.9 mph - N/A   Scattered Clouds
4:55 PM 68.0 °F 57.2 °F 68% 30.25 in 10.0 mi ENE 6.9 mph - N/A   Overcast
5:15 PM 66.2 °F 59.0 °F 78% 30.24 in 10.0 mi East 6.9 mph - N/A   Scattered Clouds
5:35 PM 64.4 °F 57.2 °F 77% 30.24 in 10.0 mi ENE 5.8 mph - N/A   Clear
5:55 PM 64.4 °F 57.2 °F 77% 30.24 in 10.0 mi ENE 4.6 mph - N/A   Scattered Clouds
6:15 PM 64.4 °F 57.2 °F 77% 30.26 in 10.0 mi ENE 3.5 mph - N/A   Mostly Cloudy
6:35 PM 64.4 °F 57.2 °F 77% 30.27 in 10.0 mi Calm Calm - N/A   Overcast
6:55 PM 64.4 °F 57.2 °F 77% 30.27 in 10.0 mi NNE 5.8 mph - N/A   Overcast
7:15 PM 62.6 °F 57.2 °F 82% 30.28 in 10.0 mi NE 3.5 mph - N/A   Overcast
7:35 PM 62.6 °F 57.2 °F 82% 30.28 in 10.0 mi NNE 5.8 mph - N/A   Overcast
7:55 PM 62.6 °F 55.4 °F 77% 30.29 in 10.0 mi NNE 5.8 mph - N/A   Overcast
8:15 PM 60.8 °F 55.4 °F 82% 30.29 in 10.0 mi NNE 6.9 mph - N/A   Overcast
8:35 PM 60.8 °F 55.4 °F 82% 30.30 in 10.0 mi NE 4.6 mph - N/A   Overcast
8:55 PM 60.8 °F 55.4 °F 82% 30.30 in 10.0 mi NE 5.8 mph - N/A   Overcast
9:15 PM 60.8 °F 53.6 °F 77% 30.30 in 10.0 mi NE 5.8 mph - N/A   Overcast
9:35 PM 60.8 °F 53.6 °F 77% 30.31 in 10.0 mi NNE 3.5 mph - N/A   Overcast
9:55 PM 60.8 °F 53.6 °F 77% 30.30 in 10.0 mi NE 4.6 mph - N/A   Overcast
10:15 PM 60.8 °F 53.6 °F 77% 30.29 in 10.0 mi East 11.5 mph - N/A   Overcast
10:35 PM 59.0 °F 53.6 °F 82% 30.28 in 10.0 mi East 11.5 mph 18.4 mph N/A   Scattered Clouds
10:55 PM 59.0 °F 53.6 °F 82% 30.29 in 10.0 mi NE 4.6 mph - N/A   Clear
11:15 PM 57.2 °F 53.6 °F 88% 30.30 in 10.0 mi NE 5.8 mph - N/A   Scattered Clouds
11:35 PM 57.2 °F 53.6 °F 88% 30.30 in 10.0 mi NE 4.6 mph - N/A   Scattered Clouds
11:55 PM 57.2 °F 51.8 °F 82% 30.29 in 10.0 mi ENE 4.6 mph - N/A   Scattered Clouds